Location: La Mini�re
(46.5205°N, 1.3777°E)
Time: 12:16:15
(UTC+00:00)

Daily predictions for brighter satellites

Satellite Brightness Start Highest point End
(mag) Time Altitude Azimuth Time Altitude Azimuth Time Altitude Azimuth
Cosmos 1833 Rocket 3.3 17:19:38 10° NNW 17:24:47 35° NE 17:29:53 10° ESE
Lacrosse 5 4.2 17:22:36 10° WNW 17:26:56 29° SW 17:31:14 10° S
H-2A R/B 3.1 17:24:34 10° ESE 17:28:31 23° ENE 17:32:34 10° N
NOSS 2-1 (D) 2.9 17:25:39 10° SSW 17:28:58 70° SE 17:32:24 10° NE
Meteor 1-21 Rocket 4.2 17:23:38 10° S 17:29:05 63° E 17:34:37 10° NNE
Cosmos 1939 Rocket 3.0 17:26:31 10° SSE 17:30:29 51° ENE 17:34:24 10° N
Cosmos 2344 4.4 17:21:58 10° NW 17:30:52 59° NE 17:43:09 10° ESE
H-2A R/B 2.0 17:27:05 10° NNE 17:31:30 80° ESE 17:35:46 10° SSW
USA 229 DEB 3.9 17:25:25 10° NW 17:32:39 65° NE 17:40:16 10° SE
USA 229 3.9 17:25:31 10° NW 17:32:45 65° NE 17:40:23 10° SE
Cosmos 44 3.4 17:28:07 10° SW 17:32:57 83° NW 17:38:08 10° NE
Cosmos 1602 Rocket 3.9 17:29:12 10° SSE 17:33:19 43° E 17:37:30 10° NNE
CZ-3B R/B 2.0 17:31:35 10° NW 17:33:58 49° NNE 17:40:05 10° ESE
Cosmos 2026 Rocket 4.4 17:29:01 10° SSE 17:34:39 39° E 17:40:23 10° NNE
SeaSat 1 3.7 17:30:44 10° NNE 17:35:20 39° NW 17:39:53 10° WSW
Feng Yun 1-1 Rocket 4.4 17:30:34 10° SE 17:35:54 53° ENE 17:41:22 10° N
SJ 16-02 2.1 17:31:56 10° SW 17:36:14 53° WNW 17:40:34 10° NNE
Cosmos 2112 Rocket 4.0 17:32:28 10° NNW 17:37:44 81° ENE 17:42:55 10° SSE
FengYun 1-2 T 4.4 17:33:03 10° SSE 17:38:39 84° WSW 17:44:20 10° NNW
Cosmos 990 Rocket 4.0 17:34:29 10° SSW 17:39:41 76° ESE 17:44:52 10° NNE
YAOGAN 1 3.6 17:36:28 10° ESE 17:39:58 25° ENE 17:43:29 10° N
Cosmos 1844 Rocket 3.5 17:35:52 10° SW 17:41:23 53° WNW 17:46:56 10° NNE
H-2A R/B 3.7 17:37:51 10° S 17:41:52 49° W 17:46:05 10° NNW
Cosmos 1689 Rocket 4.0 17:41:34 12° E 17:41:53 12° E 17:43:07 10° ESE
Aureole 3 Rocket 3.2 17:39:58 10° N 17:42:58 33° ENE 17:46:37 10° SE
COSMOS 2406 3.4 17:38:37 10° NNW 17:44:18 54° ENE 17:49:55 10° SE
Cosmos 2082 Rocket 3.0 17:39:30 10° N 17:44:30 30° NE 17:49:27 10° ESE
Cosmos 1844 4.3 17:39:48 10° SW 17:45:25 60° WNW 17:51:08 10° NNE
Cosmos 1703 3.2 17:43:27 10° S 17:47:18 70° E 17:51:11 10° NNE
NOSS 3-1 (A) 4.1 17:40:55 10° NW 17:48:20 70° NE 17:56:57 10° SE
X-37B 1.0 17:45:29 10° W 17:48:38 59° S 17:51:36 11° ESE
IRS-1C Rocket 4.3 17:44:20 10° SE 17:49:23 50° ENE 17:54:28 10° N
ISS -2.6 17:48:22 10° WNW 17:51:30 33° N 17:53:50 15° NE
Cosmos 1812 Rocket 3.5 17:47:51 10° N 17:52:13 66° E 17:56:32 10° SSE
ATLAS 2AS CENTAUR R/B 4.5 17:48:33 10° WNW 17:54:30 23° N 18:00:16 10° NE
Okean O Rocket 2.6 17:50:55 10° S 17:55:15 53° W 17:59:34 10° NNW
ATLAS 5 CENTAUR R/B 4.1 17:54:41 10° NW 17:56:50 13° NNW 17:59:07 10° NNE
CZ-4 R/B 1.7 17:55:43 10° SE 17:59:30 40° ENE 18:03:13 10° N
Iridium 4 Rocket 3.6 17:55:18 10° N 18:00:36 54° E 18:05:24 10° SSE
Cosmos 2195 Rocket 4.5 17:55:52 10° S 18:02:10 74° E 18:08:30 10° NNE
ERS-2 2.7 17:58:58 10° NNE 18:02:19 35° E 18:05:40 10° SSE
SKYMED 2 3.5 17:58:02 10° NNE 18:02:23 70° ESE 18:06:42 10° S
CSL-04 Rocket 4.4 17:59:17 10° SE 18:04:03 32° ENE 18:08:54 10° N
Okean-O 2.9 18:02:46 10° SE 18:06:59 46° ENE 18:11:15 10° N
CZ-4C R/B 4.3 18:03:13 10° NW 18:07:16 18° N 18:11:46 10° NE
S3M 4.5 18:03:01 10° N 18:08:32 34° ENE 18:14:02 10° SE
Cosmos 1428 Rocket 4.5 18:03:54 10° S 18:10:10 71° E 18:16:28 10° NNE
Cosmos 1340 2.8 18:07:06 10° SSW 18:10:50 76° WNW 18:14:36 10° N
USA 234 4.2 18:05:52 14° NE 18:10:51 36° N 18:16:40 10° WNW
Cosmos 1346 Rocket 3.1 18:07:39 10° SSE 18:11:22 42° E 18:15:07 10° NNE
Cosmos 2278 Rocket 2.3 18:06:02 10° S 18:11:33 57° ESE 18:17:08 10° NNE
Cosmos 858 Rocket 4.5 18:08:18 10° SSW 18:13:36 88° ESE 18:18:55 10° NNE
Cosmos 1953 Rocket 4.2 18:11:03 10° SSE 18:14:54 32° E 18:17:58 14° NNE
CZ-2C R/B 3.3 18:10:00 10° SSE 18:15:29 90° W 18:21:17 10° NNW
Cosmos 2292 Rocket 4.3 18:15:25 10° SSE 18:19:37 30° E 18:20:40 26° ENE
SAR-Lupe-4 3.8 18:17:50 17° NNE 18:20:18 45° E 18:23:44 10° S
Cosmos 44 Rocket 4.1 18:17:26 10° S 18:21:44 31° ESE 18:23:19 26° E
Cosmos 405 3.2 18:18:54 10° NNW 18:22:26 72° W 18:25:55 10° S
NOSS 2-1 (E) 4.2 18:21:10 10° WSW 18:24:16 36° NW 18:26:47 15° NNE
TELKOM 3 3.6 18:26:51 10° WNW 18:28:35 42° NNW 18:28:35 42° NNW
ARGOS 3.2 18:23:54 10° SE 18:29:05 53° ENE 18:34:18 10° N
Cosmos 1869 3.9 18:27:03 10° N 18:30:11 33° ENE 18:30:11 33° ENE
Meteor 2-19 Rocket 4.4 18:24:52 10° S 18:31:00 79° E 18:37:12 10° NNE
PSLV R/B 3.8 18:29:27 10° NNE 18:33:41 75° ESE 18:37:52 10° S
Cosmos 372 Rocket 3.9 18:30:04 10° SSW 18:35:15 75° ESE 18:39:58 13° NNE
SAR-Lupe-1 3.9 18:34:04 21° NNE 18:36:23 73° ESE 18:39:57 10° S
CZ-4B R/B 3.0 18:34:12 10° N 18:37:14 34° WNW 18:40:10 10° SW
CZ-2C R/B 3.2 18:33:45 11° NNE 18:38:43 39° E 18:43:55 10° SSE
Cosmos 494 Rocket 4.4 18:36:50 10° N 18:41:40 39° ENE 18:42:29 36° E
Cosmos 2150 Rocket 4.2 18:39:37 10° S 18:44:31 46° ESE 18:45:58 36° ENE
MOS 1 Rocket 3.8 18:40:58 10° N 18:45:09 52° WNW 18:49:22 10° SSW
Cosmos 1048 Rocket 3.9 18:41:41 10° NNW 18:46:47 59° ENE 18:49:36 26° SE
Cosmos-2242 3.5 18:42:50 10° NNW 18:47:06 62° W 18:51:21 10° S
COSMO-SKYMED 1 4.0 18:46:19 10° N 18:50:21 38° WNW 18:54:22 10° SW
Cosmos 2297 4.5 18:47:18 10° SSE 18:51:23 31° ESE 18:51:23 31° ESE
USA 290 4.1 18:52:37 10° NW 18:55:28 30° WSW 18:58:18 10° S
SL-08 RB Rocket 3.5 18:59:18 41° SE 19:00:45 69° ENE 19:05:13 10° N
CSL-04 Debris 4.1 18:57:31 10° SSE 19:02:55 85° WSW 19:08:21 10° NNW
Helios 1A Rocket 3.5 19:01:43 10° S 19:05:48 59° WSW 19:09:54 10° NNW
Cosmos 2221 4.4 19:02:27 10° N 19:03:42 18° N 19:03:42 18° N
H-2A R/B 2.7 19:02:38 10° S 19:07:34 54° W 19:12:41 10° NNW
Cosmos 1833 Rocket 3.9 19:03:31 10° NW 19:08:47 42° WSW 19:14:00 10° S
Cosmos 1125 Rocket 3.6 19:04:04 10° S 19:08:41 54° SE 19:08:41 54° SE
Cosmos 1809 Rocket 4.3 19:03:37 10° S 19:09:41 73° E 19:15:51 10° NNE
Cosmos 2298 Rocket 3.9 19:06:28 10° SSW 19:11:47 85° ESE 19:13:35 43° NNE
Cosmos 1689 Rocket 4.1 19:13:24 27° W 19:13:24 27° W 19:15:29 10° SW
Cosmos 2266 Rocket 3.8 19:07:40 10° S 19:13:52 71° E 19:19:59 10° NNE
YAOGAN 1 4.1 19:11:54 10° SSW 19:15:53 36° W 19:19:55 10° NNW
NOSS 2-2 (C) 4.4 19:14:05 10° NW 19:19:24 63° NE 19:20:07 59° E
In-Cosmos 22 Rocket 4.2 19:17:48 10° SSW 19:23:36 84° WNW 19:29:18 10° N
X-37B 3.2 19:22:21 10° W 19:23:54 19° SW 19:23:54 19° SW
Cosmos 1943 Rocket 4.2 19:22:31 10° S 19:23:18 14° S 19:23:18 14° S
ISS -1.3 19:25:31 10° WNW 19:26:49 21° NW 19:26:49 21° NW
Cosmos 2082 Rocket 2.9 19:23:20 10° NW 19:28:53 53° WSW 19:33:42 14° S
Cosmos 1241 Rocket 4.5 19:25:04 10° SW 19:31:35 88° NW 19:33:16 54° NNE
CZ-4 R/B 4.1 19:31:50 10° SW 19:34:41 18° W 19:37:30 10° NW
MetOp-A 4.4 19:37:46 60° N 19:37:46 60° N 19:42:08 10° NNW
Meteor 2-21 4.4 19:33:24 10° SSW 19:39:29 80° W 19:45:41 10° N
NOSS 2-2 (E) 4.5 19:37:01 10° NW 19:42:40 85° SW 19:43:31 70° SSE
ATLAS 5 CENTAUR R/B 4.3 19:41:16 10° NNW 19:42:29 12° N 19:42:29 12° N
Cosmos 2315 Rocket 3.9 19:40:09 10° N 19:46:25 88° W 19:46:33 86° SSW
ATLAS 2AS CENTAUR R/B 4.2 19:42:08 10° NW 19:48:16 25° NNE 19:48:21 25° NNE
USA 234 3.8 19:53:13 43° NNE 19:53:13 43° NNE 19:59:06 10° NW
Cosmos 2278 Rocket 4.0 19:51:11 10° WSW 19:56:00 28° NW 19:59:05 18° N
CZ-4C R/B 4.1 19:52:35 10° NNW 19:56:58 26° N 19:56:58 26° N
CZ-2C R/B 4.1 20:15:10 16° N 20:18:55 35° WNW 20:23:58 10° SW
ATLAS 5 CENTAUR R/B 4.5 20:21:49 10° SSW 20:39:15 55° SSW 20:39:15 55° SSW
